sat.trackr.live / text

‹ back to catalog

LARES

NORAD 38077 · 2012-006A

PAYLOAD ACTIVE UNKNOWN

§ Identity

Operator
Country
IT
Launch date
2012-02-13
Launch site
FRGUI
Launch vehicle
Mass (kg)
RCS (m²)
0.04

Purposes: science

External: N2YO · Heavens-Above · Gunter

§ Orbital elements

Epoch: 2026-09-09T03:19:03.897120Z

Period
114.75 min
Inclination
69.4912°
Eccentricity
0.0010654
Mean motion
12.54932224 rev/d
Perigee alt
1,435.6 km
Apogee alt
1,452.3 km
Semi-major
7,822.1 km
B*
-5.6408e-6
RAAN
148.8546°
Arg perigee
311.7356°
Mean anomaly
48.2759°
Rev number
66,760

§ Raw data

LARES1 38077U 12006A   26252.13823955 -.00000039  00000+0 -56408-5 0  99982 38077  69.4912 148.8546 0010654 311.7356  48.2759 12.54932224667600

JSON: /api/v1/satellites/38077 · /tle

For live sub-satellite position, see the globe view (requires WebGL).

§ Visibility from observer

Set your observer location to see the next 7 days of passes ≥ 10°. The values pass through the URL so the page stays shareable.

No JS? Fill the form by hand. The geolocation button needs JavaScript.